Shungnak AP, Shungnak, AK, AK

8:56 PM AKST on November 16, 2019 (GMT -0900)
Shungnak AP, Shungnak, AK

Weather History for PAGH - September, 2019

Change the Weather History Date:

Tuesday, September 10, 2019

  Actual Average (WUND) Record (WUND)
Temperature  
Mean Temperature 50 °F -  
Max Temperature 55 °F - - (-1)
Min Temperature 46 °F - - (-1)
Degree Days  
Heating Degree Days 14    
Moisture  
Dew Point 48 °F    
Average Humidity 85    
Maximum Humidity 100    
Minimum Humidity 72    
Precipitation  
Precipitation 0.00 in - - ()
Sea Level Pressure  
Sea Level Pressure 29.79 in    
Wind  
Wind Speed 8 mph (ESE)    
Max Wind Speed 10 mph    
Max Gust Speed -    
Visibility 10 miles    
Events Rain    
Averages and records for this station are not official NWS values.
T = Trace of Precipitation, MM = Missing Value Source: NWS Daily Summary

Daily Weather History Graph

Daily Weather History Graph

Search for Another Location

Airport or City:

Astronomy

Sep. 10, 2019 Rise Set
Actual Time 7:30 AM AKDT 9:18 PM AKDT
Civil Twilight 6:34 AM AKDT 10:14 PM AKDT
Nautical Twilight 5:17 AM AKDT 11:30 PM AKDT
Astronomical Twilight 2:51 AM AKDT 1:37 AM AKDT
Moon 9:54 PM AKDT (9/10) 1:42 AM AKDT (9/10)
Length of Visible Light 15h 40m
Length of Day
13h 47m
Waxing Gibbous, 90% of the Moon is Illuminated
Sep 10
Waxing Gibbous
Sep 13
Full
Sep 21
Last Quarter
Sep 28
New
Oct 5
First Quarter

Hourly Weather History & Observations

Time (AKDT) Temp. Dew Point Humidity Pressure Visibility Wind Dir Wind Speed Gust Speed Precip Events Conditions
12:56 AM 51.1 °F 48.0 °F 89% 29.78 in 10.0 mi ESE 6.9 mph - N/A   Overcast
1:56 AM 50.0 °F 48.0 °F 93% 29.79 in 10.0 mi ESE 4.6 mph - N/A Rain Light Rain
2:56 AM 50.0 °F 48.9 °F 96% 29.78 in 10.0 mi ESE 5.8 mph - N/A Rain Light Rain
3:56 AM 50.0 °F 48.0 °F 93% 29.78 in 10.0 mi East 4.6 mph - N/A   Overcast
4:56 AM 50.0 °F 48.0 °F 93% 29.77 in 10.0 mi ESE 5.8 mph - N/A   Overcast
5:56 AM 48.9 °F 46.9 °F 93% 29.78 in 10.0 mi ESE 8.1 mph - N/A   Overcast
6:56 AM 48.0 °F 46.9 °F 96% 29.78 in 10.0 mi ESE 9.2 mph - N/A   Overcast
7:56 AM 46.9 °F 46.9 °F 100% 29.78 in 10.0 mi SE 6.9 mph - N/A   Overcast
8:56 AM 48.0 °F 46.9 °F 96% 29.78 in 10.0 mi SE 8.1 mph - N/A   Overcast
9:56 AM 50.0 °F 48.0 °F 93% 29.78 in 10.0 mi ESE 10.4 mph - N/A   Overcast
10:56 AM 51.1 °F 48.0 °F 89% 29.79 in 10.0 mi ESE 10.4 mph - N/A   Overcast
11:56 AM 53.1 °F 48.0 °F 83% 29.79 in 10.0 mi SE 8.1 mph - N/A   Mostly Cloudy
12:56 PM 55.0 °F 48.0 °F 77% 29.79 in 10.0 mi SE 10.4 mph - N/A   Overcast
1:56 PM 54.0 °F 48.0 °F 80% 29.79 in 10.0 mi ESE 6.9 mph - N/A   Clear
2:56 PM 55.0 °F 48.0 °F 77% 29.79 in 10.0 mi SE 10.4 mph - N/A   Mostly Cloudy
4:56 PM 55.0 °F 48.9 °F 80% 29.79 in 10.0 mi ESE 9.2 mph - N/A Rain Light Rain
5:56 PM 55.0 °F 48.0 °F 77% 29.79 in 10.0 mi ESE 10.4 mph - N/A   Overcast
6:06 PM 55.4 °F 48.2 °F 77% 29.78 in 10.0 mi East 9.2 mph - N/A   Overcast
6:13 PM 55.4 °F 48.2 °F 77% 29.77 in 10.0 mi East 10.4 mph - N/A   Overcast
6:45 PM 55.4 °F 46.4 °F 72% 29.77 in 10.0 mi ESE 8.1 mph - N/A   Overcast
6:56 PM 55.0 °F 46.9 °F 74% 29.79 in 10.0 mi East 9.2 mph - N/A   Overcast
8:56 PM 52.0 °F 48.0 °F 86% 29.79 in 10.0 mi ESE 6.9 mph - N/A   Scattered Clouds
9:56 PM 53.1 °F 46.0 °F 77% 29.80 in 10.0 mi SE 8.1 mph - N/A   Overcast
10:56 PM 52.0 °F 46.0 °F 80% 29.80 in 10.0 mi ESE 8.1 mph - N/A   Overcast
11:56 PM 50.0 °F 46.9 °F 89% 29.81 in 10.0 mi ESE 9.2 mph - N/A   Overcast